Regional Weather Roundup
Issued by NWS

Home | Current Version | Previous Version | Text Only | Print | Product List | Glossary Off
Versions: 1 2 3 4 5 6 7 8 9 10 11 12 13 14 15 16 17 18 19 20 21 22 23 24 25 26 27 28 29 30 31 32 33 34 35 36 37 38 39 40 41 42 43 44 45 46 47 48 49 50

000
ASUS43 KOAX 272010
RWRNE

WEATHER ROUNDUP FOR NEBRASKA
NATIONAL WEATHER SERVICE OMAHA NE
300 PM CDT MON JUL 27 2015

NOTES: SATELLITE DATA IS BEING USED TO AUGMENT CLOUD COVER ABOVE
       12000 FEET.
       "FAIR" INDICATES FEW OR NO CLOUDS BELOW 12,000 FEET WITH NO
       SIGNIFICANT WEATHER AND/OR OBSTRUCTIONS TO VISIBILITY.

  * THESE STATIONS DO NOT REPORT WEATHER SUCH AS RAIN...SNOW OR FOG.

NEZ001>004-019>022-054>056-272100-
NEBRASKA PANHANDLE

CITY           SKY/WX    TMP DP  RH WIND       PRES   REMARKS
SCOTTSBLUFF    SUNNY     93  66  40 SE16      29.78F HX  96
ALLIANCE       SUNNY     89  66  46 S21       29.80F HX  91
CHADRON        SUNNY     94  64  37 SE13      29.71F HX  95
KIMBALL        MOSUNNY   89  57  33 S12       29.84F
SIDNEY         SUNNY     91  59  33 S15G24    29.83F HX  90
$$

NEZ057>060-069>072-079>082-272100-
SOUTHWEST NEBRASKA

CITY           SKY/WX    TMP DP  RH WIND       PRES   REMARKS
NORTH PLATTE   SUNNY     89  68  49 S14       29.80F HX  93
IMPERIAL       MOSUNNY   93  66  40 S20G26    29.81F HX  96
LEXINGTON      SUNNY     91  71  52 SE16      29.83F HX  97
MCCOOK         SUNNY     92  69  47 S14G24    29.82F HX  97
OGALLALA       SUNNY     90  68  47 SE15      29.79F HX  93
$$

NEZ005>010-023>029-035>040-094-272100-
NORTH CENTRAL NEBRASKA

CITY           SKY/WX    TMP DP  RH WIND       PRES   REMARKS
VALENTINE      SUNNY     91  65  41 S15G25    29.77F HX  93
AINSWORTH      MOSUNNY   90  67  47 S17G25    29.80F HX  93
BROKEN BOW     SUNNY     88  70  55 S18G29    29.83F HX  93
O`NEILL        MOSUNNY   93  65  39 S21       29.81F HX  96
ORD            SUNNY     87  69  54 SE16G28   29.82F HX  91
THEDFORD       SUNNY     88  67  49 S17       29.82F HX  91
$$

NEZ041-046>049-061>064-073>077-083>087-272100-
SOUTH CENTRAL NEBRASKA

CITY           SKY/WX    TMP DP  RH WIND       PRES   REMARKS
GRAND ISLAND   MOSUNNY   86  72  62 SE14G23   29.87F HX  92
AURORA         MOSUNNY   84  71  63 SE14      29.87F
HASTINGS       MOSUNNY   89  72  56 S10G21    29.87F HX  96
HEBRON         SUNNY     87  68  52 S13       29.87F HX  91
HOLDREGE       SUNNY     89  69  52 SE16      29.85F HX  93
KEARNEY *      SUNNY     88  72  58 S17G24    29.86S HX  94
YORK           SUNNY     84  73  70 SE9       29.87F HX  91
$$

NEZ011>018-030>034-042>045-272100-
NORTHEAST NEBRASKA

CITY           SKY/WX    TMP DP  RH WIND       PRES   REMARKS
NORFOLK        SUNNY     90  71  53 S16       29.84F HX  96
ALBION         SUNNY     87  67  51 S18       29.86S HX  90
BLAIR          MOSUNNY   86  73  64 SE10      29.88F HX  92
COLUMBUS *     MOSUNNY   88  68  51 SE10      29.86F HX  91
FREMONT        MOSUNNY   89  70  53 SE12      29.87F HX  94
TEKAMAH        MOSUNNY   84  75  74 SE10      29.87F HX  92
WAYNE          PTSUNNY   84  76  76 SE14G21   29.87F HX  94
$$

NEZ050>053-065>068-078-088>093-272100-
SOUTHEAST NEBRASKA

CITY           SKY/WX    TMP DP  RH WIND       PRES   REMARKS
LINCOLN        SUNNY     91  70  49 S16       29.87F HX  96
OMAHA EPPLEY   MOSUNNY   88  74  63 S12       29.88F HX  96
BEATRICE       MOSUNNY   87  74  64 SE8G17    29.88F HX  96
FALLS CITY     CLOUDY    85  78  80 SE6       29.89F HX  96
NEBRASKA CITY  CLOUDY    83  71  66 SE7       29.89F
PLATTSMOUTH    PTSUNNY   86  72  62 SE9       29.89F HX  92
$$

NEZ044-045-051>053-067-272100-
OMAHA AREA

CITY           SKY/WX    TMP DP  RH WIND       PRES   REMARKS
OMAHA EPPLEY   MOSUNNY   88  74  63 S12       29.88F HX  96
BLAIR          MOSUNNY   86  73  64 SE10      29.88F HX  92
FREMONT        MOSUNNY   89  70  53 SE12      29.87F HX  94
MILLARD        MOSUNNY   87  73  63 SE12      29.88F HX  94
OFFUTT AFB     PTSUNNY   87  74  64 S10       29.88F HX  95
PLATTSMOUTH    PTSUNNY   86  72  62 SE9       29.89F HX  92
WAHOO          FAIR      87  72  59 SE15      29.87F HX  93
$$


USA.gov is the U.S. government's official web portal to all federal, state and local government web resources and services.